Voltar ao catálogo

COSMOS 1275 DEB

AtivoPO
NORAD 12780·DEBRIS·🇷🇺 Russia

Lançado Jun 4, 1981 de Plesetsk Cosmodrome

Loading…

Próximas Passagens (próximas 24 horas)

TLE

AtualizadoSource: Space-Track

Época: Sep 14, 2026, 07:57 UTC

1 12780U 81053DW  26257.33159880  .00000472  00000-0  35912-3 0  9990
2 12780  82.9501   6.6011 0021343 243.7320 136.9336 13.91674944277525

Acompanhe COSMOS 1275 DEB em tempo real com AllMySat

Download on the App Store